EW8865 Weather Reports


time (UTC)temp
C
wind
direction
speed
KPH
gust
KPH
rain 1hr
cm
rain 24hr
cm
rain mn
cm
humidity
%
barometer
mb
20260902124004 18 212 12.9 20.9 0.00 0.56 0.56 90 1014.9
20260902123003 18 199 14.5 32.2 0.00 0.56 0.56 90 1014.9
20260902122504 18 213 14.5 32.2 0.03 0.56 0.56 90 1015.0
20260902122003 18 200 9.7 24.1 0.03 0.56 0.56 92 1014.9
20260902120503 17 195 16.1 24.1 0.08 0.56 0.56 92 1015.2
20260902120004 17 212 11.3 20.9 0.08 0.56 0.56 92 1015.1
20260902115503 17 197 11.3 19.3 0.08 0.56 0.56 92 1015.2
20260902115004 17 168 9.7 16.1 0.10 0.56 0.56 92 1015.2
20260902114503 17 210 9.7 19.3 0.13 0.56 0.56 92 1015.2
20260902114003 17 136 3.2 11.3 0.13 0.56 0.56 92 1015.2
20260902113004 17 114 4.8 9.7 0.13 0.56 0.56 92 1015.5
20260902112504 17 198 4.8 9.7 0.10 0.53 0.53 92 1015.6
20260902112004 17 175 8.0 16.1 0.10 0.53 0.53 92 1015.6
20260902111003 17 176 11.3 19.3 0.05 0.51 0.51 92 1015.7
20260902110503 17 166 4.8 16.1 0.05 0.48 0.48 92 1015.7
20260902105003 16 137 8.0 14.5 0.08 0.46 0.46 92 1016.0
20260902104004 16 138 4.8 8.0 0.08 0.43 0.43 93 1016.2
20260902103503 16 136 4.8 11.3 0.10 0.43 0.43 93 1016.2
20260902103003 16 129 8.0 14.5 0.13 0.43 0.43 93 1016.2
20260902102504 16 144 4.8 12.9 0.15 0.43 0.43 92 1016.2
20260902101504 16 177 3.2 8.0 0.18 0.43 0.43 92 1016.4
20260902101004 16 178 3.2 12.9 0.20 0.43 0.43 92 1016.6
20260902100504 16 177 6.4 12.9 0.23 0.43 0.43 92 1016.6
20260902100004 16 182 0.0 4.8 0.23 0.43 0.43 92 1016.7
20260902095504 16 178 0.0 1.6 0.23 0.41 0.41 92 1016.7
20260902095003 16 178 1.6 3.2 0.23 0.38 0.38 92 1016.8
20260902094503 16 178 0.0 1.6 0.20 0.36 0.36 92 1016.8
20260902094004 16 177 3.2 4.8 0.23 0.36 0.36 92 1016.7
20260902093004 15 175 0.0 11.3 0.20 0.33 0.33 92 1016.8
20260902092504 15 186 3.2 11.3 0.20 0.30 0.30 92 1016.8
20260902092003 15 191 4.8 14.5 0.20 0.28 0.28 92 1016.9
20260902091504 15 133 6.4 12.9 0.18 0.25 0.25 92 1016.9
20260902091003 15 162 4.8 12.9 0.18 0.23 0.23 92 1017.0
20260902090504 15 178 4.8 12.9 0.15 0.20 0.20 92 1017.0
20260902090004 15 162 6.4 14.5 0.15 0.18 0.18 91 1017.0
20260902085504 15 207 6.4 16.1 0.18 0.18 0.18 91 1017.0
20260902085003 15 187 11.3 20.9 0.15 0.15 0.15 91 1017.1
20260902084004 15 209 9.7 20.9 0.15 0.15 0.15 91 1017.1
20260902083503 16 157 12.9 22.5 0.15 0.15 0.15 91 1017.0
20260902083004 16 179 9.7 16.1 0.13 0.13 0.13 91 1017.2
20260902082503 16 216 9.7 16.1 0.10 0.10 0.10 90 1017.3
20260902082004 16 183 11.3 19.3 0.08 0.08 0.08 90 1017.3
20260902081004 16 205 9.7 19.3 0.05 0.05 0.05 90 1017.2
20260902080504 16 229 8.0 12.9 0.05 0.05 0.05 90 1017.2
20260902075503 16 195 4.8 9.7 0.00 0.00 0.00 89 1017.2
20260902075003 16 188 3.2 11.3 0.00 0.00 0.00 89 1017.2
20260902074003 16 180 4.8 9.7 0.00 0.00 0.00 90 1017.2
20260902073504 16 169 4.8 8.0 0.00 0.00 0.00 90 1017.2
20260902073003 15 198 1.6 4.8 0.00 0.00 0.00 90 1017.2
20260902072503 15 199 4.8 4.8 0.00 0.00 0.00 90 1017.2
20260902072003 15 200 3.2 8.0 0.00 0.00 0.00 90 1017.3
20260902071504 15 199 1.6 9.7 0.00 0.00 0.00 90 1017.2
20260902071004 15 206 3.2 12.9 0.00 0.00 0.00 90 1017.2
20260902070504 15 189 8.0 24.1 0.00 0.00 0.00 90 1017.3
20260902070005 15 205 4.8 9.7 0.00 0.00 0.00 90 1017.3
20260902065504 15 194 4.8 9.7 0.00 0.00 0.00 91 1017.3
20260902065004 15 181 1.6 4.8 0.00 0.00 0.00 91 1017.2
20260902064004 15 219 0.0 0.0 0.00 0.00 0.00 91 1017.3
20260902063004 15 222 0.0 0.0 0.00 0.00 0.00 91 1017.2
20260902062504 15 222 0.0 0.0 0.00 0.00 0.00 91 1017.2
20260902062004 15 222 0.0 3.2 0.00 0.00 0.00 91 1017.2
20260902060504 15 224 0.0 0.0 0.00 0.00 0.00 91 1017.1
20260902055503 15 231 0.0 0.0 0.00 0.00 0.00 91 1017.2
20260902055003 15 231 0.0 0.0 0.00 0.00 0.00 91 1017.2
20260902054503 15 232 0.0 0.0 0.00 0.00 0.00 91 1017.0
20260902054004 15 232 0.0 0.0 0.00 0.00 0.00 91 1017.1
20260902053003 15 232 0.0 0.0 0.00 0.00 0.00 91 1017.2
20260902052003 15 232 0.0 0.0 0.00 0.00 0.00 91 1017.2
20260902051503 15 232 0.0 0.0 0.00 0.00 0.00 91 1017.4
20260902051003 15 232 0.0 0.0 0.00 0.00 0.00 91 1017.5
20260902050504 15 232 0.0 0.0 0.00 0.00 0.00 91 1017.4
20260902050005 15 232 0.0 0.0 0.00 0.00 0.00 90 1017.3
20260902045504 15 232 0.0 0.0 0.00 0.00 0.00 90 1017.3
20260902045004 15 232 0.0 0.0 0.00 0.00 0.00 90 1017.2
20260902044504 15 232 0.0 0.0 0.00 0.00 0.00 90 1017.2
20260902044003 15 232 0.0 0.0 0.00 0.00 0.00 90 1017.2
20260902043504 15 232 0.0 0.0 0.00 0.00 0.00 90 1017.3
20260902043003 15 232 0.0 0.0 0.00 0.00 0.00 90 1017.2
20260902042504 15 232 0.0 0.0 0.00 0.00 0.00 90 1017.3
20260902041504 15 232 0.0 0.0 0.00 0.00 0.00 90 1017.5
20260902041003 15 232 0.0 0.0 0.00 0.00 0.00 90 1017.6
20260902040503 15 232 0.0 0.0 0.00 0.00 0.00 90 1017.6
20260902040004 15 232 0.0 0.0 0.00 0.00 0.00 90 1017.6
20260902035504 15 232 0.0 0.0 0.00 0.00 0.00 90 1017.6
20260902035004 15 232 1.6 4.8 0.00 0.00 0.00 89 1017.6
20260902034504 15 229 0.0 0.0 0.00 0.00 0.00 89 1017.6
20260902034003 15 228 0.0 0.0 0.00 0.00 0.00 89 1017.5
20260902033503 15 228 0.0 1.6 0.00 0.00 0.00 89 1017.6
20260902033004 15 228 0.0 1.6 0.00 0.00 0.00 89 1017.8
20260902032504 15 228 1.6 4.8 0.00 0.00 0.00 89 1017.9
20260902032004 15 228 0.0 1.6 0.00 0.00 0.00 89 1017.9
20260902031504 15 228 0.0 0.0 0.00 0.00 0.00 89 1017.8
20260902031004 15 228 0.0 0.0 0.00 0.00 0.00 89 1017.8
20260902030503 15 228 0.0 0.0 0.00 0.00 0.00 89 1017.9
20260902030004 15 228 0.0 1.6 0.00 0.00 0.00 89 1018.0
20260902025504 15 228 1.6 4.8 0.00 0.00 0.00 89 1018.0
20260902025004 15 229 3.2 4.8 0.00 0.00 0.00 89 1018.1
20260902024503 15 229 0.0 1.6 0.00 0.00 0.00 89 1018.2
20260902024004 15 229 0.0 1.6 0.00 0.00 0.00 89 1018.1
20260902023503 15 229 0.0 3.2 0.00 0.00 0.00 89 1018.2
20260902023004 15 229 3.2 4.8 0.00 0.00 0.00 89 1018.3
20260902022503 15 229 3.2 4.8 0.00 0.00 0.00 89 1018.2
20260902022004 15 229 3.2 4.8 0.00 0.00 0.00 89 1018.3
20260902020503 15 233 1.6 4.8 0.00 0.00 0.00 89 1018.2
20260902020003 15 233 3.2 8.0 0.00 0.00 0.00 89 1018.3
20260902015503 15 244 3.2 8.0 0.00 0.00 0.00 89 1018.4
20260902014503 15 245 1.6 4.8 0.00 0.00 0.00 89 1018.6
20260902014003 15 246 3.2 4.8 0.00 0.00 0.00 89 1018.6
20260902013004 15 239 4.8 8.0 0.00 0.00 0.00 89 1018.7
20260902012504 15 230 0.0 4.8 0.00 0.00 0.00 89 1018.7
20260902012004 15 229 1.6 4.8 0.00 0.00 0.00 89 1018.7
20260902011504 15 228 1.6 4.8 0.00 0.00 0.00 89 1018.8
20260902011004 15 215 0.0 3.2 0.00 0.00 0.00 89 1018.8
20260902010504 15 215 0.0 0.0 0.00 0.00 0.00 89 1018.8
20260902005503 15 215 0.0 0.0 0.00 0.00 0.00 89 1019.0
20260902005003 15 215 0.0 0.0 0.00 0.00 0.00 89 1018.9
20260902004503 15 215 0.0 4.8 0.00 0.00 0.00 89 1018.9
20260902004003 15 215 1.6 4.8 0.00 0.00 0.00 89 1018.9
20260902003503 15 213 0.0 0.0 0.00 0.00 0.00 89 1018.9
20260902003003 15 212 0.0 0.0 0.00 0.00 0.00 89 1019.0
20260902002503 15 212 0.0 0.0 0.00 0.00 0.00 89 1019.0
20260902002004 15 212 0.0 0.0 0.00 0.00 0.00 89 1019.0
20260902001503 15 212 0.0 0.0 0.00 0.00 0.00 89 1019.1
20260902000504 15 212 0.0 0.0 0.00 0.00 0.00 90 1019.1
20260902000004 15 212 0.0 0.0 0.00 0.00 0.00 89 1019.1
20260901235004 15 211 0.0 0.0 0.00 0.00 0.00 89 1019.1
20260901234503 15 210 0.0 0.0 0.00 0.00 0.00 89 1019.1
20260901234003 15 210 0.0 0.0 0.00 0.00 0.00 89 1019.1
20260901233503 15 210 0.0 0.0 0.00 0.00 0.00 89 1019.2
20260901233003 15 210 0.0 0.0 0.00 0.00 0.00 89 1019.3
20260901232503 15 210 0.0 0.0 0.00 0.00 0.00 89 1019.3
20260901231503 15 210 1.6 4.8 0.00 0.00 0.00 89 1019.3
20260901231004 15 210 1.6 3.2 0.00 0.00 0.00 89 1019.4
20260901230503 15 210 1.6 4.8 0.00 0.00 0.00 89 1019.4
20260901230004 15 210 1.6 4.8 0.00 0.00 0.00 89 1019.3
20260901225504 15 210 0.0 0.0 0.00 0.00 0.00 89 1019.3
20260901225004 15 210 0.0 0.0 0.00 0.00 0.00 89 1019.2
20260901224504 15 210 0.0 0.0 0.00 0.00 0.00 89 1019.2
20260901224004 15 210 1.6 4.8 0.00 0.00 0.00 89 1019.2
20260901223503 15 210 1.6 4.8 0.00 0.00 0.00 89 1019.1
20260901222004 15 210 3.2 8.0 0.00 0.00 0.00 88 1019.1
20260901220003 15 199 1.6 3.2 0.00 0.00 0.00 88 1019.2
20260901215504 15 199 1.6 4.8 0.00 0.00 0.00 88 1019.3
20260901215004 15 198 0.0 4.8 0.00 0.00 0.00 88 1019.3
20260901214504 15 198 0.0 0.0 0.00 0.00 0.00 87 1019.3
20260901213504 15 198 0.0 0.0 0.00 0.00 0.00 87 1019.3
20260901213004 15 198 0.0 0.0 0.00 0.00 0.00 87 1019.4
20260901212503 15 198 0.0 0.0 0.00 0.00 0.00 87 1019.5
20260901212003 15 198 0.0 0.0 0.00 0.00 0.00 87 1019.5
20260901211003 15 198 0.0 0.0 0.00 0.00 0.00 86 1019.5
20260901210503 15 198 0.0 1.6 0.00 0.00 0.00 86 1019.5
20260901210004 15 198 1.6 3.2 0.00 0.00 0.00 86 1019.5
20260901205503 15 198 3.2 4.8 0.00 0.00 0.00 85 1019.5
20260901205004 15 198 0.0 1.6 0.00 0.00 0.00 85 1019.5
20260901204504 15 198 1.6 4.8 0.00 0.00 0.00 85 1019.5
20260901203504 15 197 0.0 3.2 0.00 0.00 0.00 85 1019.5
20260901203003 15 197 1.6 4.8 0.00 0.00 0.00 84 1019.5
20260901202503 15 197 3.2 4.8 0.00 0.00 0.00 84 1019.5
20260901202003 15 197 1.6 4.8 0.00 0.00 0.00 84 1019.4
20260901201503 15 197 3.2 4.8 0.00 0.00 0.00 83 1019.5
20260901201004 15 196 3.2 4.8 0.00 0.00 0.00 83 1019.5
20260901200004 16 272 0.0 4.8 0.00 0.00 0.00 82 1019.3
20260901195504 16 272 1.6 3.2 0.00 0.00 0.00 82 1019.4
20260901195004 16 272 0.0 0.0 0.00 0.00 0.00 82 1019.4
20260901194504 16 272 1.6 3.2 0.00 0.00 0.00 82 1019.4
20260901194004 16 273 1.6 4.8 0.00 0.00 0.00 81 1019.4
20260901193504 16 272 4.8 9.7 0.00 0.00 0.00 81 1019.4
20260901193004 16 265 3.2 4.8 0.00 0.00 0.00 80 1019.5
20260901192504 16 264 3.2 11.3 0.00 0.00 0.00 80 1019.3
20260901192004 16 280 6.4 11.3 0.00 0.00 0.00 80 1019.4
20260901191504 16 281 6.4 12.9 0.00 0.00 0.00 79 1019.4
20260901191004 16 279 8.0 14.5 0.00 0.00 0.00 78 1019.4
20260901190504 16 275 3.2 4.8 0.00 0.00 0.00 78 1019.3
20260901190003 16 281 3.2 4.8 0.00 0.00 0.00 78 1019.3
20260901185003 16 262 4.8 9.7 0.00 0.00 0.00 78 1019.3
20260901184504 16 265 4.8 9.7 0.00 0.00 0.00 79 1019.2
20260901184004 17 261 6.4 14.5 0.00 0.00 0.00 79 1019.2
20260901183503 17 253 8.0 14.5 0.00 0.00 0.00 79 1019.2
20260901183004 17 270 12.9 19.3 0.00 0.00 0.00 78 1019.2
20260901182503 17 234 9.7 19.3 0.00 0.00 0.00 77 1019.2
20260901182004 17 263 9.7 12.9 0.00 0.00 0.00 78 1019.2
20260901181503 17 260 6.4 14.5 0.00 0.00 0.00 77 1019.1
20260901181004 17 252 9.7 14.5 0.00 0.00 0.00 77 1019.2
20260901180003 17 268 9.7 19.3 0.00 0.00 0.00 76 1019.1
20260901175503 17 249 9.7 16.1 0.00 0.00 0.00 76 1019.2
20260901175004 17 267 9.7 12.9 0.00 0.00 0.00 75 1019.1
20260901174504 17 253 9.7 16.1 0.00 0.00 0.00 75 1019.1
20260901173503 18 234 11.3 20.9 0.00 0.00 0.00 73 1019.2
20260901172504 18 269 11.3 19.3 0.00 0.00 0.00 72 1019.4
20260901172004 18 265 11.3 20.9 0.00 0.00 0.00 72 1019.5
20260901171503 18 266 9.7 19.3 0.00 0.00 0.00 72 1019.5
20260901171004 18 259 12.9 19.3 0.00 0.00 0.00 71 1019.4
20260901170003 18 248 16.1 24.1 0.00 0.00 0.00 69 1019.4
20260901165504 18 273 14.5 20.9 0.00 0.00 0.00 68 1019.5
20260901164504 19 266 11.3 27.4 0.00 0.00 0.00 64 1019.3
20260901164004 19 266 14.5 25.7 0.00 0.00 0.00 64 1019.4
20260901163503 19 246 9.7 22.5 0.00 0.00 0.00 66 1019.3
20260901163004 19 282 14.5 27.4 0.00 0.00 0.00 66 1019.4
20260901162503 19 271 16.1 27.4 0.00 0.00 0.00 66 1019.3
20260901162003 19 273 16.1 22.5 0.00 0.00 0.00 66 1019.3
20260901161503 19 278 16.1 25.7 0.00 0.00 0.00 67 1019.3
20260901161004 19 282 16.1 25.7 0.00 0.00 0.00 68 1019.3
20260901160504 19 266 16.1 27.4 0.00 0.00 0.00 69 1019.5
20260901160004 19 280 16.1 25.7 0.00 0.00 0.00 67 1019.5
20260901154503 19 280 20.9 27.4 0.00 0.00 0.00 66 1019.4
20260901153504 20 292 16.1 27.4 0.00 0.00 0.00 64 1019.4
20260901152504 20 238 16.1 25.7 0.00 0.00 0.00 62 1019.5
20260901152003 21 254 11.3 27.4 0.00 0.00 0.00 62 1019.5
20260901151503 21 233 14.5 29.0 0.00 0.00 0.00 61 1019.4
20260901151003 21 277 17.7 32.2 0.00 0.00 0.00 61 1019.4
20260901150504 21 268 17.7 25.7 0.00 0.00 0.00 61 1019.5
20260901144504 21 250 14.5 22.5 0.00 0.00 0.00 64 1019.4
20260901144004 20 244 11.3 20.9 0.00 0.00 0.00 65 1019.4
20260901143504 20 269 16.1 25.7 0.00 0.00 0.00 65 1019.5
20260901143003 20 265 16.1 27.4 0.00 0.00 0.00 66 1019.5
20260901142503 20 285 16.1 25.7 0.00 0.00 0.00 66 1019.5
20260901142003 20 284 17.7 27.4 0.00 0.00 0.00 66 1019.5
20260901141504 20 271 19.3 25.7 0.00 0.00 0.00 69 1019.5
20260901141003 20 283 16.1 22.5 0.00 0.00 0.00 68 1019.5
20260901140004 20 248 14.5 22.5 0.00 0.00 0.00 67 1019.6
20260901135504 20 240 16.1 22.5 0.00 0.00 0.00 66 1019.6
20260901135004 20 247 16.1 29.0 0.00 0.00 0.00 66 1019.7
20260901134504 20 285 16.1 20.9 0.00 0.00 0.00 66 1019.7
20260901134004 20 285 14.5 22.5 0.00 0.00 0.00 65 1019.6
20260901133504 20 272 20.9 27.4 0.00 0.00 0.00 65 1019.7
20260901133003 20 261 14.5 20.9 0.00 0.00 0.00 66 1019.7
20260901132004 20 230 11.3 22.5 0.00 0.00 0.00 65 1019.6
20260901131004 20 237 14.5 27.4 0.00 0.00 0.00 66 1019.6
20260901130504 20 259 16.1 27.4 0.00 0.00 0.00 65 1019.7
20260901125504 20 271 14.5 25.7 0.00 0.00 0.00 66 1019.7
20260901124504 20 283 12.9 22.5 0.00 0.00 0.00 69 1019.8